Zurück zum Katalog

LANTAN-1

AktivWissenschaftSSO
NORAD 62727·PAYLOAD·🇨🇳 China
Dieser Satellitenname wurde noch nicht durch offizielle Quellen bestätigt.

Gestartet Jan 17, 2025 von Jiuquan Satellite Launch Center

Loading…

Nächste Überflüge (nächste 24 Stunden)

TLE

AktuellSource: Space-Track

Epoche: Sep 14, 2026, 15:44 UTC

1 62727U 25012C   26257.65618362  .00008197  00000-0  29250-3 0  9999
2 62727  97.4191 332.8662 0005913 316.7837  43.2938 15.29121330 92052

Verfolge LANTAN-1 in Echtzeit mit AllMySat

Download on the App Store